Terug naar catalogus

BLOCK DM-SL R/B

ActiefGTO
NORAD 28936·ROCKET BODY· XX

Gelanceerd Feb 15, 2006 vanaf Sea Launch Platform

Loading…

TLE

VerouderendSource: Space-Track

Epoch: Sep 14, 2026, 14:17 UTC

1 28936U 06003B   26257.59520777 -.00000182  00000-0  00000-0 0  9993
2 28936   0.2290  96.1946 6783634  60.2963  82.6600  2.19498497165042

Volg BLOCK DM-SL R/B in realtime met AllMySat

Download on the App Store